Find Kosmos-1287

NORAD ID: 12636 Int'l Des: 1981-074 Owner: GUKOS Country: SU operational
LEOCIRCULAR

当前视图

正在加载3D地球...

关于 Kosmos-1287

正在加载描述...

即将过境

Passes for default location (London). Set your location on the main map for personalized predictions.

高度历史

Loading altitude history...

两行轨道根数

1 12636U 81074A 26151.17615694 .00000006 00000-0 15454-3 0 9990
2 12636 74.0332 226.1165 0030368 34.3267 325.9736 12.44354723 36310
Epoch: May 31, 2026 • Age: 7 hours

当前状态

高度 1523.3 km
速度 7.10 km/s
星下点 -70.69°S, 109.53°E
发射日期 Aug 6, 1981
运行时间 44.8 years
类型 other

技术详情

分类 Payload
质量 60.00 kg
干质量 60.00 kg
总质量 60.00 kg
长度 0.80 m
直径 0.80 m
跨度 0.80 m
形状 Poly
制造商 NPOPM
平台类型 Strela-1 11F625
阶段状态 In Orbit
所有者/国家 GUKOS/SU

Most Searched